Regional Weather Roundup
Issued by NWS Newport/Morehead, NC

Home | Current Version | Previous Version | Text Only | Print | Product List | Glossary On
Versions: 1 2 3 4 5 6 7 8 9 10 11 12 13 14 15 16 17 18 19 20 21 22 23 24 25 26 27 28 29 30 31 32 33 34 35 36 37 38 39 40 41 42 43 44 45 46 47 48 49 50
790
ASUS42 KMHX 101825
RWRMHX
WEATHER ROUNDUP FOR EASTERN NORTH CAROLINA
NATIONAL WEATHER SERVICE NEWPORT/MOREHEAD CITY NC
100 PM EST WED FEB 10 2016

NOTE: "FAIR" INDICATES FEW OR NO CLOUDS BELOW 12,000 FEET
WITH NO SIGNIFICANT WEATHER AND/OR OBSTRUCTIONS TO VISIBILITY

NCZ015>017-031-032-045>047-102-103-101900-
NORTH COAST

CITY           SKY/WX    TMP DP  RH WIND       PRES   REMARKS
EDENTON        SUNNY     41  19  41 W13G20    29.85F
ELIZABETH CITY SUNNY     39  20  46 SW14G20   29.84F
KITTY HAWK     CLEAR     40  21  45 W9G17     29.83F
MANTEO         SUNNY     38  20  48 W8        29.85F

$$

NCZ045>047-081-094-103-104-101900-
CENTRAL COAST

CITY           SKY/WX    TMP DP  RH WIND       PRES   REMARKS
FRISCO         SUNNY     40  22  48 W10G17    29.88F
SWANQUARTER      N/A     39 N/A N/A W9G22     29.85S

$$

NCZ095-097-098-100-101-101900-
SOUTHERN COAST

CITY           SKY/WX    TMP DP  RH WIND       PRES   REMARKS
BEAUFORT       SUNNY     40  20  44 SW13      29.89F
CEDAR ISLAND     N/A     41 N/A N/A W10G20    29.91F
JACKSONVILLE   SUNNY     42  16  34 W14G20    29.89F
PINEY ISLAND   CLEAR    N/A N/A N/A W16G24    29.87F
WILMINGTON     SUNNY     43  19  38 W14       29.91F


$$

NCZ011>013-027>030-043-044-078>080-089-090>093-098-101900-
COASTAL PLAIN

CITY           SKY/WX    TMP DP  RH WIND       PRES   REMARKS
AHOSKIE        SUNNY     39  18  43 CALM      29.85F
CLINTON        SUNNY     40  18  42 W8        29.91F
ELIZABETHTOWN  PTSUNNY   39  18  42 W15       29.92F
GOLDSBORO      SUNNY     41  16  36 W8G18     29.87F
GREENVILLE     SUNNY     39  19  45 W8G17     29.90F
HAVELOCK       SUNNY     41  18  39 SW16      29.89F
KENANSVILLE    MOSUNNY   39  16  38 SW10      29.90F
KINSTON        SUNNY     39  16  38 W7G17     29.89F
NEW BERN       SUNNY     41  17  38 W16G22    29.89F
RICHLANDS      SUNNY     41  16  36 SW10G16   29.89F
ROCKY MOUNT    SUNNY     38  19  46 W10G18    29.88F
WASHINGTON     SUNNY     39  19  44 W9G18     29.87F
WHITEVILLE     MOSUNNY   37  17  44 W10       29.93F

$$

AMZ130-135-150-152-154-156-158-170-250-252-270-ANZ085-086-088-633-658-670-101900-
MARINE OBSERVATIONS

STATION/POSITION TIME  TEMP    WIND        PRES    WAVE   SWELL
                       AIR SEA DIR/SP/G            HT/PER HT/PER
                 (UTC) (F)     (DEG/KT/KT) (MB)    (FT/S) (FT/S)
CHESAPEAKE LIGHT 1800   38     280/ 11/ 13 1010.3
64 E VA BEACH    1650   37 50  290/ 17/ 23 1009.8    7/ 6   3/13
DUCK             1800   36     240/ 14/ 19 1010.0
2 E DUCK         NOT AVBL
OREGON INLET     1800   38 42  270/  7/ 12 1010.9
13E OREGON INLT  NOT AVBL
HATTERAS CG      1800   36 49  270/ 18/ 21 1011.2
DIAMOND BUOY     1750   39 72  280/ 17/ 23 1011.9    7/ 7   3/14
CAPE LOOKOUT     NOT AVBL
BEAUFORT LAB     1800   40 46  240/  6/ 13 1011.1
30 SE NEW RVR IN 1708   40 60              1013.4
30 SE NEW RVR IN NOT AVBL
27 SE WRIGHTSVLE 1708   39 60  280/ 12/ 25 1012.5
5 SE WRIGHTSVLE  1708   39 51  270/ 12/ 17 1013.9
225 S CAPE HAT   1750   54 68  280/ 29/ 37   N/A    18/11  11/11
41 SE CHARLESTON 1750   39 62  280/ 21/ 27 1015.4    7/ 7

$$




USA.gov is the U.S. government's official web portal to all federal, state and local government web resources and services.